Showing default

VIGORIDE 7, 68473

Orbit data source: Space-Track

VIGORIDE 7, 68473 is an American payload satellite in SSO that was launched on Mon, 30 Mar 2026 UTC via an FALCON 9 launch vehicle from the Air Force Western Test Range (AFWTR). Payload-class satellites include a variety of spacecraft equipped with specific instruments for various scientific and technological missions. These include communications satellites like Starlink; space stations such as the ISS; scientific satellites like the Hubble; Earth observation satellites from companies like Planet Labs, Umbra, and HawkEye 360; GPS; miniature CubeSats for education and research; and military/defense satellites.

Loading next visibility...
Identifier
68473, 2026-067BK
Orbit
SSO
Country
Flag of USUS
Related business
None
Manufacturer
Unknown
Mission
Operational spacecraft
Bus & Motor
Unknown
Mass
Unknown
Launch date (UTC)
2026-03-30 (1 month ago)
Launch vehicle
FALCON 9
Launch site
Air Force Western Test Range (AFWTR)
Object type
Payload
Rocket body
Debris
Shape & HBR
Unknown shape, 1.1 m
Radar Cross Section
RCS unknown

Expand to show TLE details & history
Last TLE update: 19 hours ago

TLE from 19 hours ago
0 VIGORIDE 7
1 68473U 26067BK  26131.62261219  .00008919  00000-0  43403-3 0  9995
2 68473  97.4515  90.6300 0003635 143.1543 216.9942 15.18612743  6374
Epoch: 2026-05-11T14:56Z
TLE epoch observation values (Epoch: 2026-05-11T14:56:33.693Z)
Latitude
0.00003°
Longitude
-2.91909°
Altitude
515.12 km
Speed
7.605 km/s
True Right ascension
06h 02m 31s
True Declination
0° 00' 00"
Sunlit
Object was in daylight at epoch
Visualization orbit readout
Latitude
Unknown
Longitude
Unknown
Altitude
Unknown
Speed
Unknown
Apparent Right ascension
Unknown
Apparent Declination
Unknown
Sunlit
N/A
Visualization observer readout
Local Sidereal Time
18:19:50
Azimuth
Unknown
Elevation
Unknown
Doppler factor
Unknown
Orbital elements
Apogee altitude
509.505 km
Perigee altitude
504.499 km
Semi-major axis
6,885.139 km
Eccentricity
0.00036
Inclination
97.4515°
RAAN
90.63°
Arg. of periapsis
143.1543°
True anomaly
216.96914°
Mean anomaly
216.9942°
Eccentric anomaly
216.98167°
Mean motion
3.79904 °/min
Orbital period
94.76 mins
BSTAR
0.00043403
Loading maneuver chart data...
Computing Atmospheric mass density...
Loading historical data...
Loading historical data...
Loading historical data...
Loading historical data...
Loading historical data...
Loading historical data...
Loading historical data...

Documentation

Showing up to 5 results
|